Time,TemperatureF,DewpointF,PressureIn,WindDirection,WindDirectionDegrees,WindSpeedMPH,WindSpeedGustMPH,Humidity,HourlyPrecipIn,Conditions,Clouds,dailyrainin,SoftwareType,DateUTC
2013-05-03 00:01:00,49.7,36.4,30.32,North,350,21.9,21.9,60,0.00,RA,,0.00,WeatherDisplay:10.37,2013-05-03 05:01:00,
2013-05-03 00:06:00,49.6,36.3,30.32,North,349,12.7,12.7,60,0.00,RA,,0.00,WeatherDisplay:10.37,2013-05-03 05:06:00,
2013-05-03 00:11:00,49.6,36.3,30.32,North,355,12.7,12.7,60,0.00,CLR,,0.00,WeatherDisplay:10.37,2013-05-03 05:11:00,
2013-05-03 00:16:00,49.6,36.7,30.32,NNW,345,10.4,10.4,61,0.00,CLR,,0.00,WeatherDisplay:10.37,2013-05-03 05:16:00,
2013-05-03 00:21:00,49.5,36.2,30.32,North,360,12.0,12.0,60,0.00,CLR,,0.00,WeatherDisplay:10.37,2013-05-03 05:21:00,
2013-05-03 00:26:00,49.4,36.1,30.32,North,351,17.3,17.3,60,0.00,CLR,,0.00,WeatherDisplay:10.37,2013-05-03 05:26:00,
2013-05-03 00:31:00,49.3,36.4,30.32,North,360,11.5,11.5,61,0.00,CLR,,0.00,WeatherDisplay:10.37,2013-05-03 05:31:00,
2013-05-03 00:36:00,49.2,36.3,30.32,North,360,15.0,15.0,61,0.00,CLR,,0.00,WeatherDisplay:10.37,2013-05-03 05:36:00,
2013-05-03 00:41:00,49.2,36.3,30.32,North,355,10.4,10.4,61,0.00,CLR,,0.00,WeatherDisplay:10.37,2013-05-03 05:41:00,
2013-05-03 00:46:00,49.1,36.2,30.32,North,355,17.3,17.3,61,0.00,CLR,,0.00,WeatherDisplay:10.37,2013-05-03 05:46:00,
2013-05-03 00:51:00,49.1,36.6,30.32,NNW,329,12.0,12.0,62,0.00,CLR,,0.00,WeatherDisplay:10.37,2013-05-03 05:51:00,
2013-05-03 00:56:00,49.1,36.6,30.32,North,355,11.5,11.5,62,0.00,CLR,,0.00,WeatherDisplay:10.37,2013-05-03 05:56:00,
2013-05-03 01:01:00,49.1,36.6,30.32,NNW,341,6.9,6.9,62,0.00,CLR,,0.00,WeatherDisplay:10.37,2013-05-03 06:01:00,
2013-05-03 01:06:00,49.1,36.6,30.32,North,360,9.0,9.0,62,0.00,CLR,,0.00,WeatherDisplay:10.37,2013-05-03 06:06:00,
2013-05-03 01:11:00,49.0,36.5,30.32,NW,318,15.0,15.0,62,0.00,CLR,,0.00,WeatherDisplay:10.37,2013-05-03 06:11:00,
2013-05-03 01:16:00,48.9,36.4,30.31,NNW,343,11.5,11.5,62,0.00,CLR,,0.00,WeatherDisplay:10.37,2013-05-03 06:16:00,
2013-05-03 01:21:00,48.9,36.4,30.31,North,355,13.8,13.8,62,0.00,CLR,,0.00,WeatherDisplay:10.37,2013-05-03 06:21:00,
2013-05-03 01:26:00,48.8,36.4,30.31,NNW,346,10.4,10.4,62,0.00,CLR,,0.00,WeatherDisplay:10.37,2013-05-03 06:26:00,
2013-05-03 01:31:00,48.7,36.7,30.32,North,350,17.3,17.3,63,0.00,CLR,,0.00,WeatherDisplay:10.37,2013-05-03 06:31:00,
2013-05-03 01:36:00,48.6,36.6,30.32,NNW,346,16.1,16.1,63,0.00,CLR,,0.00,WeatherDisplay:10.37,2013-05-03 06:36:00,
2013-05-03 01:41:00,48.5,36.5,30.31,North,355,10.4,10.4,63,0.00,CLR,,0.00,WeatherDisplay:10.37,2013-05-03 06:41:00,
2013-05-03 01:46:00,48.4,36.4,30.31,North,355,12.7,12.7,63,0.00,CLR,,0.00,WeatherDisplay:10.37,2013-05-03 06:46:00,
2013-05-03 01:51:00,48.2,36.2,30.31,NW,311,16.1,16.1,63,0.00,CLR,,0.00,WeatherDisplay:10.37,2013-05-03 06:51:00,
2013-05-03 01:56:00,48.0,36.4,30.30,NNW,342,13.0,13.0,64,0.00,CLR,,0.00,WeatherDisplay:10.37,2013-05-03 06:56:00,
2013-05-03 02:01:00,47.9,35.9,30.30,NNW,345,16.1,16.1,63,0.00,CLR,,0.00,WeatherDisplay:10.37,2013-05-03 07:01:00,
2013-05-03 02:06:00,47.8,36.2,30.30,North,355,20.7,20.7,64,0.00,CLR,,0.00,WeatherDisplay:10.37,2013-05-03 07:06:00,
2013-05-03 02:11:00,47.7,36.1,30.30,NNW,343,12.7,12.7,64,0.00,CLR,,0.00,WeatherDisplay:10.37,2013-05-03 07:11:00,
2013-05-03 02:16:00,47.7,36.1,30.30,North,350,6.0,6.0,64,0.00,CLR,,0.00,WeatherDisplay:10.37,2013-05-03 07:16:00,
2013-05-03 02:21:00,47.6,36.0,30.30,NNW,328,13.8,13.8,64,0.00,CLR,,0.00,WeatherDisplay:10.37,2013-05-03 07:21:00,
2013-05-03 02:26:00,47.5,35.9,30.30,NNW,337,11.5,11.5,64,0.00,CLR,,0.00,WeatherDisplay:10.37,2013-05-03 07:26:00,
2013-05-03 02:31:00,47.4,35.8,30.29,NNW,343,10.4,10.4,64,0.00,CLR,,0.00,WeatherDisplay:10.37,2013-05-03 07:31:00,
2013-05-03 02:36:00,47.4,35.8,30.29,NNW,346,11.5,11.5,64,0.00,CLR,,0.00,WeatherDisplay:10.37,2013-05-03 07:36:00,
2013-05-03 02:41:00,47.3,35.7,30.29,North,349,13.8,13.8,64,0.00,CLR,,0.00,WeatherDisplay:10.37,2013-05-03 07:41:00,
2013-05-03 02:46:00,47.3,35.7,30.29,North,360,11.5,11.5,64,0.00,CLR,,0.00,WeatherDisplay:10.37,2013-05-03 07:46:00,
2013-05-03 02:51:00,47.3,35.7,30.29,North,351,11.0,11.0,64,0.00,CLR,,0.00,WeatherDisplay:10.37,2013-05-03 07:51:00,
2013-05-03 02:56:00,47.3,35.7,30.29,North,360,6.0,6.0,64,0.00,CLR,,0.00,WeatherDisplay:10.37,2013-05-03 07:56:00,
2013-05-03 03:01:00,47.2,35.2,30.29,NNW,341,10.4,10.4,63,0.00,CLR,,0.00,WeatherDisplay:10.37,2013-05-03 08:01:00,
2013-05-03 03:06:00,47.2,35.2,30.29,NNW,344,9.2,9.2,63,0.00,CLR,,0.00,WeatherDisplay:10.37,2013-05-03 08:06:00,
2013-05-03 03:11:00,47.2,34.8,30.29,North,355,11.5,11.5,62,0.00,CLR,,0.00,WeatherDisplay:10.37,2013-05-03 08:11:00,
2013-05-03 03:16:00,47.2,34.8,30.29,North,355,9.2,9.2,62,0.00,CLR,,0.00,WeatherDisplay:10.37,2013-05-03 08:16:00,
2013-05-03 03:21:00,47.2,34.8,30.29,NNW,348,13.0,13.0,62,0.00,CLR,,0.00,WeatherDisplay:10.37,2013-05-03 08:21:00,
2013-05-03 03:26:00,47.2,34.8,30.29,North,360,11.5,11.5,62,0.00,CLR,,0.00,WeatherDisplay:10.37,2013-05-03 08:26:00,
2013-05-03 03:31:00,47.2,34.8,30.28,NNW,336,8.1,8.1,62,0.00,CLR,,0.00,WeatherDisplay:10.37,2013-05-03 08:31:00,
2013-05-03 03:36:00,47.2,34.4,30.28,NW,323,12.7,12.7,61,0.00,CLR,,0.00,WeatherDisplay:10.37,2013-05-03 08:36:00,
2013-05-03 03:41:00,47.2,34.4,30.28,North,350,9.2,9.2,61,0.00,CLR,,0.00,WeatherDisplay:10.37,2013-05-03 08:41:00,
2013-05-03 03:46:00,47.1,34.3,30.28,NNW,345,11.5,11.5,61,0.00,CLR,,0.00,WeatherDisplay:10.37,2013-05-03 08:46:00,
2013-05-03 03:51:00,47.1,33.9,30.28,NNW,348,10.4,10.4,60,0.00,CLR,,0.00,WeatherDisplay:10.37,2013-05-03 08:51:00,
2013-05-03 03:56:00,47.1,33.9,30.28,North,349,15.0,15.0,60,0.00,CLR,,0.00,WeatherDisplay:10.37,2013-05-03 08:56:00,
2013-05-03 04:01:00,47.1,33.9,30.28,NNW,348,7.0,7.0,60,0.00,CLR,,0.00,WeatherDisplay:10.37,2013-05-03 09:01:00,
2013-05-03 04:06:00,47.2,33.6,30.27,North,355,11.5,11.5,59,0.00,CLR,,0.00,WeatherDisplay:10.37,2013-05-03 09:06:00,
2013-05-03 04:11:00,47.1,33.5,30.27,North,355,5.8,5.8,59,0.00,CLR,,0.00,WeatherDisplay:10.37,2013-05-03 09:11:00,
2013-05-03 04:16:00,47.1,33.5,30.28,North,349,11.5,11.5,59,0.00,CLR,,0.00,WeatherDisplay:10.37,2013-05-03 09:16:00,
2013-05-03 04:21:00,47.1,33.1,30.28,NNW,348,11.5,11.5,58,0.00,CLR,,0.00,WeatherDisplay:10.37,2013-05-03 09:21:00,
2013-05-03 04:26:00,47.0,33.0,30.28,North,350,11.5,11.5,58,0.00,CLR,,0.00,WeatherDisplay:10.37,2013-05-03 09:26:00,
2013-05-03 04:31:00,47.0,33.0,30.28,NNW,344,7.0,7.0,58,0.00,CLR,,0.00,WeatherDisplay:10.37,2013-05-03 09:31:00,
2013-05-03 04:36:00,47.0,32.5,30.28,NNW,342,11.5,11.5,57,0.00,CLR,,0.00,WeatherDisplay:10.37,2013-05-03 09:36:00,
2013-05-03 04:41:00,47.0,32.5,30.28,NNW,346,17.3,17.3,57,0.00,CLR,,0.00,WeatherDisplay:10.37,2013-05-03 09:41:00,
2013-05-03 04:46:00,47.0,32.5,30.28,NNW,329,10.4,10.4,57,0.00,CLR,,0.00,WeatherDisplay:10.37,2013-05-03 09:46:00,
2013-05-03 04:51:00,47.0,32.5,30.28,NNW,327,12.7,12.7,57,0.00,CLR,,0.00,WeatherDisplay:10.37,2013-05-03 09:51:00,
2013-05-03 04:56:00,46.9,32.4,30.28,North,355,11.5,11.5,57,0.00,CLR,,0.00,WeatherDisplay:10.37,2013-05-03 09:56:00,
2013-05-03 05:01:00,46.8,32.4,30.27,North,360,17.3,17.3,57,0.00,CLR,,0.00,WeatherDisplay:10.37,2013-05-03 10:01:00,
2013-05-03 05:06:00,46.8,32.4,30.27,North,360,10.4,10.4,57,0.00,CLR,,0.00,WeatherDisplay:10.37,2013-05-03 10:06:00,
2013-05-03 05:11:00,46.7,32.3,30.27,North,355,17.3,17.3,57,0.00,CLR,,0.00,WeatherDisplay:10.37,2013-05-03 10:11:00,
2013-05-03 05:16:00,46.7,32.3,30.28,North,351,11.5,11.5,57,0.00,CLR,,0.00,WeatherDisplay:10.37,2013-05-03 10:16:00,
2013-05-03 05:21:00,46.7,32.3,30.28,NNW,337,10.4,10.4,57,0.00,CLR,,0.00,WeatherDisplay:10.37,2013-05-03 10:21:00,
2013-05-03 05:26:00,46.6,32.2,30.28,North,355,6.0,6.0,57,0.00,CLR,,0.00,WeatherDisplay:10.37,2013-05-03 10:26:00,
2013-05-03 05:31:00,46.5,32.1,30.28,North,355,15.0,15.0,57,0.00,CLR,,0.00,WeatherDisplay:10.37,2013-05-03 10:31:00,
2013-05-03 05:36:00,46.4,32.0,30.28,North,350,14.0,14.0,57,0.00,CLR,,0.00,WeatherDisplay:10.37,2013-05-03 10:36:00,
2013-05-03 05:41:00,46.3,31.9,30.28,North,9,11.5,11.5,57,0.00,CLR,,0.00,WeatherDisplay:10.37,2013-05-03 10:41:00,
2013-05-03 05:46:00,46.3,31.9,30.29,North,349,5.8,5.8,57,0.00,CLR,,0.00,WeatherDisplay:10.37,2013-05-03 10:46:00,
2013-05-03 05:51:00,46.2,31.8,30.29,NNW,346,11.5,11.5,57,0.00,CLR,,0.00,WeatherDisplay:10.37,2013-05-03 10:51:00,
2013-05-03 05:56:00,46.2,31.8,30.29,North,355,11.5,11.5,57,0.00,CLR,,0.00,WeatherDisplay:10.37,2013-05-03 10:56:00,
2013-05-03 06:01:00,46.2,31.8,30.29,NNW,344,3.5,3.5,57,0.00,CLR,,0.00,WeatherDisplay:10.37,2013-05-03 11:01:00,
2013-05-03 06:06:00,46.1,31.7,30.29,North,355,13.8,13.8,57,0.00,CLR,,0.00,WeatherDisplay:10.37,2013-05-03 11:06:00,
2013-05-03 06:11:00,46.1,31.7,30.29,North,360,10.4,10.4,57,0.00,CLR,,0.00,WeatherDisplay:10.37,2013-05-03 11:11:00,
2013-05-03 06:16:00,46.0,31.6,30.30,NNW,342,11.0,11.0,57,0.00,CLR,,0.00,WeatherDisplay:10.37,2013-05-03 11:16:00,
2013-05-03 06:21:00,45.9,31.5,30.30,North,349,6.9,6.9,57,0.00,CLR,,0.00,WeatherDisplay:10.37,2013-05-03 11:21:00,
2013-05-03 06:26:00,45.8,31.4,30.30,NNW,341,10.0,10.0,57,0.00,CLR,,0.00,WeatherDisplay:10.37,2013-05-03 11:26:00,
2013-05-03 06:31:00,45.8,31.4,30.31,NNW,335,10.4,10.4,57,0.00,CLR,,0.00,WeatherDisplay:10.37,2013-05-03 11:31:00,
2013-05-03 06:36:00,45.7,31.3,30.31,NNE,15,11.5,11.5,57,0.00,CLR,,0.00,WeatherDisplay:10.37,2013-05-03 11:36:00,
2013-05-03 06:41:00,45.7,31.3,30.31,NNW,346,10.4,10.4,57,0.00,CLR,,0.00,WeatherDisplay:10.37,2013-05-03 11:41:00,
2013-05-03 06:46:00,45.6,31.2,30.31,North,350,15.0,15.0,57,0.00,CLR,,0.00,WeatherDisplay:10.37,2013-05-03 11:46:00,
2013-05-03 06:51:00,45.6,31.2,30.31,NNW,348,11.5,11.5,57,0.00,CLR,,0.00,WeatherDisplay:10.37,2013-05-03 11:51:00,
2013-05-03 06:56:00,45.5,31.6,30.31,NNW,334,8.0,8.0,58,0.00,CLR,,0.00,WeatherDisplay:10.37,2013-05-03 11:56:00,
2013-05-03 07:01:00,45.4,31.5,30.31,NW,315,3.5,3.5,58,0.00,CLR,,0.00,WeatherDisplay:10.37,2013-05-03 12:01:00,
2013-05-03 07:06:00,45.4,31.0,30.31,North,355,11.5,11.5,57,0.00,CLR,,0.00,WeatherDisplay:10.37,2013-05-03 12:06:00,
2013-05-03 07:11:00,45.5,31.1,30.31,NNW,336,3.5,3.5,57,0.00,CLR,,0.00,WeatherDisplay:10.37,2013-05-03 12:11:00,
2013-05-03 07:16:00,45.5,31.1,30.32,NNW,342,11.5,11.5,57,0.00,CLR,,0.00,WeatherDisplay:10.37,2013-05-03 12:16:00,
2013-05-03 07:21:00,45.7,30.9,30.32,North,355,12.7,12.7,56,0.00,CLR,,0.00,WeatherDisplay:10.37,2013-05-03 12:21:00,
2013-05-03 07:26:00,45.9,31.1,30.32,NNW,334,12.7,12.7,56,0.00,CLR,,0.00,WeatherDisplay:10.37,2013-05-03 12:26:00,
2013-05-03 07:31:00,46.1,30.8,30.32,NNW,336,6.9,6.9,55,0.00,CLR,,0.00,WeatherDisplay:10.37,2013-05-03 12:31:00,
2013-05-03 07:36:00,46.3,31.0,30.33,North,355,9.2,9.2,55,0.00,CLR,,0.00,WeatherDisplay:10.37,2013-05-03 12:36:00,
2013-05-03 07:41:00,46.4,31.1,30.33,North,355,13.8,13.8,55,0.00,CLR,,0.00,WeatherDisplay:10.37,2013-05-03 12:41:00,
2013-05-03 07:46:00,46.6,30.8,30.33,North,355,15.0,15.0,54,0.00,CLR,,0.00,WeatherDisplay:10.37,2013-05-03 12:46:00,
2013-05-03 07:51:00,46.8,31.5,30.33,NNW,334,9.0,9.0,55,0.00,CLR,,0.00,WeatherDisplay:10.37,2013-05-03 12:51:00,
2013-05-03 07:56:00,47.0,31.2,30.33,North,360,12.0,12.0,54,0.00,CLR,,0.00,WeatherDisplay:10.37,2013-05-03 12:56:00,
2013-05-03 08:01:00,47.2,31.4,30.33,NNW,330,5.8,5.8,54,0.00,CLR,,0.00,WeatherDisplay:10.37,2013-05-03 13:01:00,
2013-05-03 08:06:00,47.4,31.6,30.33,NNW,330,3.5,3.5,54,0.00,CLR,,0.00,WeatherDisplay:10.37,2013-05-03 13:06:00,
2013-05-03 08:11:00,47.6,31.3,30.33,NNW,338,16.1,16.1,53,0.00,CLR,,0.00,WeatherDisplay:10.37,2013-05-03 13:11:00,
2013-05-03 08:16:00,47.8,31.9,30.33,NNW,340,10.4,10.4,54,0.00,CLR,,0.00,WeatherDisplay:10.37,2013-05-03 13:16:00,
2013-05-03 08:21:00,48.0,31.7,30.34,North,5,12.0,12.0,53,0.00,CLR,,0.00,WeatherDisplay:10.37,2013-05-03 13:21:00,
2013-05-03 08:26:00,48.2,31.4,30.34,North,349,12.7,12.7,52,0.00,CLR,,0.00,WeatherDisplay:10.37,2013-05-03 13:26:00,
2013-05-03 08:31:00,48.6,31.3,30.33,NNW,330,19.6,19.6,51,0.00,CLR,,0.00,WeatherDisplay:10.37,2013-05-03 13:31:00,
2013-05-03 08:36:00,48.8,31.5,30.34,North,355,19.6,19.6,51,0.00,CLR,,0.00,WeatherDisplay:10.37,2013-05-03 13:36:00,
2013-05-03 08:41:00,49.1,31.7,30.34,North,355,11.5,11.5,51,0.00,CLR,,0.00,WeatherDisplay:10.37,2013-05-03 13:41:00,
2013-05-03 08:46:00,49.4,32.0,30.34,NNW,336,16.1,16.1,51,0.00,CLR,,0.00,WeatherDisplay:10.37,2013-05-03 13:46:00,
2013-05-03 08:51:00,49.8,31.9,30.34,NW,321,15.0,15.0,50,0.00,CLR,,0.00,WeatherDisplay:10.37,2013-05-03 13:51:00,
2013-05-03 08:56:00,50.0,31.6,30.34,NNW,329,16.0,16.0,49,0.00,CLR,,0.00,WeatherDisplay:10.37,2013-05-03 13:56:00,
2013-05-03 09:01:00,50.2,31.2,30.34,NNW,341,10.4,10.4,48,0.00,CLR,,0.00,WeatherDisplay:10.37,2013-05-03 14:01:00,
2013-05-03 09:06:00,50.4,31.4,30.34,NW,311,15.0,15.0,48,0.00,CLR,,0.00,WeatherDisplay:10.37,2013-05-03 14:06:00,
2013-05-03 09:11:00,50.7,31.7,30.34,WNW,299,16.0,16.0,48,0.00,CLR,,0.00,WeatherDisplay:10.37,2013-05-03 14:11:00,
2013-05-03 09:16:00,50.9,31.4,30.34,NNW,348,13.8,13.8,47,0.00,CLR,,0.00,WeatherDisplay:10.37,2013-05-03 14:16:00,
2013-05-03 09:21:00,51.2,31.1,30.34,NNW,330,20.7,20.7,46,0.00,CLR,,0.00,WeatherDisplay:10.37,2013-05-03 14:21:00,
2013-05-03 09:26:00,51.3,31.2,30.34,NW,318,18.4,18.4,46,0.00,CLR,,0.00,WeatherDisplay:10.37,2013-05-03 14:26:00,
2013-05-03 09:31:00,51.5,30.8,30.34,North,355,13.8,13.8,45,0.00,CLR,,0.00,WeatherDisplay:10.37,2013-05-03 14:31:00,
2013-05-03 09:36:00,51.8,31.1,30.34,North,349,16.1,16.1,45,0.00,CLR,,0.00,WeatherDisplay:10.37,2013-05-03 14:36:00,
2013-05-03 09:41:00,52.0,31.3,30.33,North,11,12.7,12.7,45,0.00,CLR,,0.00,WeatherDisplay:10.37,2013-05-03 14:41:00,
2013-05-03 09:46:00,52.3,31.6,30.33,NNE,17,17.3,17.3,45,0.00,CLR,,0.00,WeatherDisplay:10.37,2013-05-03 14:46:00,
2013-05-03 09:51:00,52.7,31.4,30.34,NW,314,20.7,20.7,44,0.00,CLR,,0.00,WeatherDisplay:10.37,2013-05-03 14:51:00,
2013-05-03 09:56:00,52.8,30.9,30.33,North,360,15.0,15.0,43,0.00,CLR,,0.00,WeatherDisplay:10.37,2013-05-03 14:56:00,
2013-05-03 10:01:00,53.0,30.5,30.33,North,355,21.9,21.9,42,0.00,CLR,,0.00,WeatherDisplay:10.37,2013-05-03 15:01:00,
2013-05-03 10:06:00,53.4,30.3,30.33,NNW,327,19.6,19.6,41,0.00,CLR,,0.00,WeatherDisplay:10.37,2013-05-03 15:06:00,
2013-05-03 10:11:00,53.7,30.5,30.34,North,360,17.3,17.3,41,0.00,CLR,,0.00,WeatherDisplay:10.37,2013-05-03 15:11:00,
2013-05-03 10:16:00,54.1,30.3,30.33,NNW,344,12.7,12.7,40,0.00,CLR,,0.00,WeatherDisplay:10.37,2013-05-03 15:16:00,
2013-05-03 10:21:00,54.5,30.6,30.33,NNE,15,11.5,11.5,40,0.00,CLR,,0.00,WeatherDisplay:10.37,2013-05-03 15:21:00,
2013-05-03 10:26:00,54.7,30.2,30.33,NW,322,11.5,11.5,39,0.00,CLR,,0.00,WeatherDisplay:10.37,2013-05-03 15:26:00,
2013-05-03 10:31:00,54.9,29.1,30.33,North,360,23.0,23.0,37,0.00,CLR,,0.00,WeatherDisplay:10.37,2013-05-03 15:31:00,
2013-05-03 10:36:00,54.8,29.0,30.33,NW,321,19.6,19.6,37,0.00,CLR,,0.00,WeatherDisplay:10.37,2013-05-03 15:36:00,
2013-05-03 10:41:00,54.9,29.1,30.33,North,351,18.4,18.4,37,0.00,CLR,,0.00,WeatherDisplay:10.37,2013-05-03 15:41:00,
2013-05-03 10:46:00,55.3,29.4,30.33,NNW,342,25.3,25.3,37,0.00,CLR,,0.00,WeatherDisplay:10.37,2013-05-03 15:46:00,
2013-05-03 10:51:00,55.5,29.0,30.33,North,5,26.5,26.5,36,0.00,CLR,,0.00,WeatherDisplay:10.37,2013-05-03 15:51:00,
2013-05-03 10:56:00,55.8,29.2,30.32,NNW,329,21.9,21.9,36,0.00,CLR,,0.00,WeatherDisplay:10.37,2013-05-03 15:56:00,
2013-05-03 11:01:00,56.1,28.8,30.32,North,360,19.0,19.0,35,0.00,CLR,,0.00,WeatherDisplay:10.37,2013-05-03 16:01:00,
2013-05-03 11:06:00,56.2,28.2,30.32,NNW,348,19.6,19.6,34,0.00,CLR,,0.00,WeatherDisplay:10.37,2013-05-03 16:06:00,
2013-05-03 11:11:00,56.5,29.8,30.32,North,360,16.0,16.0,36,0.00,CLR,,0.00,WeatherDisplay:10.37,2013-05-03 16:11:00,
2013-05-03 11:16:00,56.7,29.3,30.32,NNW,338,19.6,19.6,35,0.00,CLR,,0.00,WeatherDisplay:10.37,2013-05-03 16:16:00,
2013-05-03 11:21:00,56.9,28.8,30.32,North,360,26.5,26.5,34,0.00,CLR,,0.00,WeatherDisplay:10.37,2013-05-03 16:21:00,
2013-05-03 11:26:00,57.0,28.9,30.32,North,355,15.0,15.0,34,0.00,CLR,,0.00,WeatherDisplay:10.37,2013-05-03 16:26:00,
2013-05-03 11:31:00,57.2,30.5,30.32,NNW,345,18.0,18.0,36,0.00,CLR,,0.00,WeatherDisplay:10.37,2013-05-03 16:31:00,
2013-05-03 11:36:00,57.0,30.3,30.31,NNW,337,19.0,19.0,36,0.00,CLR,,0.00,WeatherDisplay:10.37,2013-05-03 16:36:00,
2013-05-03 11:41:00,57.2,30.5,30.32,North,360,15.0,15.0,36,0.00,CLR,,0.00,WeatherDisplay:10.37,2013-05-03 16:41:00,
2013-05-03 11:46:00,57.5,30.7,30.31,North,360,10.4,10.4,36,0.00,CLR,,0.00,WeatherDisplay:10.37,2013-05-03 16:46:00,
2013-05-03 11:51:00,57.8,30.3,30.31,NNW,335,23.0,23.0,35,0.00,CLR,,0.00,WeatherDisplay:10.37,2013-05-03 16:51:00,
2013-05-03 11:56:00,57.9,29.7,30.31,North,350,16.1,16.1,34,0.00,CLR,,0.00,WeatherDisplay:10.37,2013-05-03 16:56:00,
2013-05-03 12:01:00,58.2,29.2,30.30,North,5,16.1,16.1,33,0.00,CLR,,0.00,WeatherDisplay:10.37,2013-05-03 17:01:00,
2013-05-03 12:06:00,58.2,29.2,30.30,NW,319,17.3,17.3,33,0.00,CLR,,0.00,WeatherDisplay:10.37,2013-05-03 17:06:00,
2013-05-03 12:11:00,58.5,30.2,30.30,NNW,342,1.0,0.0,34,0.00,CLR,,0.00,WeatherDisplay:10.37,2013-05-03 17:11:00,
2013-05-03 12:16:00,59.0,29.2,30.29,North,350,16.1,16.1,32,0.00,CLR,,0.00,WeatherDisplay:10.37,2013-05-03 17:16:00,
2013-05-03 12:21:00,59.2,30.1,30.29,North,351,3.5,3.5,33,0.00,CLR,,0.00,WeatherDisplay:10.37,2013-05-03 17:21:00,
2013-05-03 12:26:00,59.4,30.3,30.29,NNE,13,11.5,11.5,33,0.00,CLR,,0.00,WeatherDisplay:10.37,2013-05-03 17:26:00,
2013-05-03 12:31:00,59.4,30.3,30.28,North,5,11.5,11.5,33,0.00,CLR,,0.00,WeatherDisplay:10.37,2013-05-03 17:31:00,
2013-05-03 12:36:00,59.8,29.9,30.28,North,360,13.8,13.8,32,0.00,CLR,,0.00,WeatherDisplay:10.37,2013-05-03 17:36:00,
2013-05-03 12:41:00,60.1,29.3,30.28,North,349,10.4,10.4,31,0.00,CLR,,0.00,WeatherDisplay:10.37,2013-05-03 17:41:00,
2013-05-03 12:46:00,60.2,29.4,30.27,North,355,13.8,13.8,31,0.00,CLR,,0.00,WeatherDisplay:10.37,2013-05-03 17:46:00,
2013-05-03 12:51:00,60.4,28.8,30.27,North,360,12.7,12.7,30,0.00,CLR,,0.00,WeatherDisplay:10.37,2013-05-03 17:51:00,
2013-05-03 12:56:00,60.7,29.9,30.26,North,355,16.1,16.1,31,0.00,CLR,,0.00,WeatherDisplay:10.37,2013-05-03 17:56:00,
2013-05-03 13:01:00,60.9,29.2,30.26,North,360,13.8,13.8,30,0.00,CLR,,0.00,WeatherDisplay:10.37,2013-05-03 18:01:00,
2013-05-03 13:06:00,61.0,29.3,30.26,NNW,332,13.0,13.0,30,0.00,CLR,,0.00,WeatherDisplay:10.37,2013-05-03 18:06:00,
2013-05-03 13:11:00,60.7,28.2,30.25,NW,313,12.7,12.7,29,0.00,CLR,,0.00,WeatherDisplay:10.37,2013-05-03 18:11:00,
2013-05-03 13:16:00,60.7,29.1,30.25,North,360,16.1,16.1,30,0.00,CLR,,0.00,WeatherDisplay:10.37,2013-05-03 18:16:00,
2013-05-03 13:21:00,61.0,29.3,30.25,NNW,330,12.7,12.7,30,0.00,CLR,,0.00,WeatherDisplay:10.37,2013-05-03 18:21:00,
2013-05-03 13:26:00,61.5,29.7,30.24,ENE,75,18.4,18.4,30,0.00,CLR,,0.00,WeatherDisplay:10.37,2013-05-03 18:26:00,
2013-05-03 13:31:00,61.8,30.0,30.24,North,355,14.0,14.0,30,0.00,CLR,,0.00,WeatherDisplay:10.37,2013-05-03 18:31:00,
2013-05-03 13:36:00,61.8,28.3,30.24,NW,317,15.0,15.0,28,0.00,CLR,,0.00,WeatherDisplay:10.37,2013-05-03 18:36:00,
2013-05-03 13:41:00,62.0,31.0,30.23,North,360,12.7,12.7,31,0.00,CLR,,0.00,WeatherDisplay:10.37,2013-05-03 18:41:00,
2013-05-03 13:46:00,62.0,29.3,30.23,NW,307,13.8,13.8,29,0.00,CLR,,0.00,WeatherDisplay:10.37,2013-05-03 18:46:00,
2013-05-03 13:51:00,61.9,29.3,30.23,North,360,15.0,15.0,29,0.00,CLR,,0.00,WeatherDisplay:10.37,2013-05-03 18:51:00,
2013-05-03 13:56:00,62.1,30.3,30.23,NNW,346,19.6,19.6,30,0.00,CLR,,0.00,WeatherDisplay:10.37,2013-05-03 18:56:00,
2013-05-03 14:01:00,62.4,29.7,30.22,NW,308,6.9,0.0,29,0.00,CLR,,0.00,WeatherDisplay:10.37,2013-05-03 19:01:00,
2013-05-03 14:06:00,62.6,29.0,30.22,North,349,14.0,14.0,28,0.00,CLR,,0.00,WeatherDisplay:10.37,2013-05-03 19:06:00,
2013-05-03 14:11:00,62.7,30.0,30.22,NNW,347,17.3,17.3,29,0.00,CLR,,0.00,WeatherDisplay:10.37,2013-05-03 19:11:00,
2013-05-03 14:16:00,62.8,30.0,30.21,North,350,2.3,2.3,29,0.00,CLR,,0.00,WeatherDisplay:10.37,2013-05-03 19:16:00,
2013-05-03 14:21:00,63.2,30.4,30.21,North,360,10.4,10.4,29,0.00,CLR,,0.00,WeatherDisplay:10.37,2013-05-03 19:21:00,
2013-05-03 14:26:00,63.5,29.8,30.20,NNE,18,16.1,16.1,28,0.00,CLR,,0.00,WeatherDisplay:10.37,2013-05-03 19:26:00,
2013-05-03 14:31:00,63.7,29.1,30.20,NNW,342,15.0,15.0,27,0.00,CLR,,0.00,WeatherDisplay:10.37,2013-05-03 19:31:00,
2013-05-03 14:36:00,63.5,30.6,30.20,North,355,11.5,11.5,29,0.00,CLR,,0.00,WeatherDisplay:10.37,2013-05-03 19:36:00,
2013-05-03 14:41:00,63.8,30.9,30.20,North,5,12.7,12.7,29,0.00,CLR,,0.00,WeatherDisplay:10.37,2013-05-03 19:41:00,
2013-05-03 14:46:00,63.8,30.9,30.19,NNW,342,10.4,10.4,29,0.00,CLR,,0.00,WeatherDisplay:10.37,2013-05-03 19:46:00,
2013-05-03 14:51:00,64.0,29.3,30.19,North,360,17.3,17.3,27,0.00,CLR,,0.00,WeatherDisplay:10.37,2013-05-03 19:51:00,
2013-05-03 14:56:00,64.0,29.3,30.19,North,355,10.4,10.4,27,0.00,CLR,,0.00,WeatherDisplay:10.37,2013-05-03 19:56:00,
2013-05-03 15:01:00,64.1,29.4,30.18,North,355,10.4,10.4,27,0.00,CLR,,0.00,WeatherDisplay:10.37,2013-05-03 20:01:00,
2013-05-03 15:06:00,64.4,29.7,30.17,NNW,337,15.0,15.0,27,0.00,CLR,,0.00,WeatherDisplay:10.37,2013-05-03 20:06:00,
2013-05-03 15:11:00,64.7,29.9,30.18,NNW,345,6.0,6.0,27,0.00,CLR,,0.00,WeatherDisplay:10.37,2013-05-03 20:11:00,
2013-05-03 15:16:00,64.9,29.2,30.17,North,355,5.8,5.8,26,0.00,CLR,,0.00,WeatherDisplay:10.37,2013-05-03 20:16:00,
2013-05-03 15:21:00,65.1,30.3,30.17,NNW,346,11.5,11.5,27,0.00,CLR,,0.00,WeatherDisplay:10.37,2013-05-03 20:21:00,
2013-05-03 15:26:00,65.1,31.2,30.16,North,355,9.2,9.2,28,0.00,CLR,,0.00,WeatherDisplay:10.37,2013-05-03 20:26:00,
2013-05-03 15:31:00,65.3,30.4,30.16,NNW,344,1.2,1.2,27,0.00,CLR,,0.00,WeatherDisplay:10.37,2013-05-03 20:31:00,
2013-05-03 15:36:00,65.6,31.6,30.16,NW,310,11.5,11.5,28,0.00,CLR,,0.00,WeatherDisplay:10.37,2013-05-03 20:36:00,
2013-05-03 15:41:00,65.7,29.8,30.16,NNW,344,15.0,15.0,26,0.00,CLR,,0.00,WeatherDisplay:10.37,2013-05-03 20:41:00,
2013-05-03 15:46:00,65.8,30.9,30.15,North,355,10.0,10.0,27,0.00,CLR,,0.00,WeatherDisplay:10.37,2013-05-03 20:46:00,
2013-05-03 15:51:00,66.0,30.1,30.15,NW,321,16.1,16.1,26,0.00,CLR,,0.00,WeatherDisplay:10.37,2013-05-03 20:51:00,
2013-05-03 15:56:00,65.5,28.7,30.15,NW,311,4.0,4.0,25,0.00,CLR,,0.00,WeatherDisplay:10.37,2013-05-03 20:56:00,
2013-05-03 16:01:00,65.5,29.7,30.14,North,9,9.2,9.2,26,0.00,CLR,,0.00,WeatherDisplay:10.37,2013-05-03 21:01:00,
2013-05-03 16:06:00,65.6,29.8,30.14,North,355,6.9,6.9,26,0.00,CLR,,0.00,WeatherDisplay:10.37,2013-05-03 21:06:00,
2013-05-03 16:11:00,65.7,28.9,30.14,North,355,11.5,11.5,25,0.00,CLR,,0.00,WeatherDisplay:10.37,2013-05-03 21:11:00,
2013-05-03 16:16:00,65.9,31.8,30.13,NNW,348,1.0,1.0,28,0.00,CLR,,0.00,WeatherDisplay:10.37,2013-05-03 21:16:00,
2013-05-03 16:21:00,66.2,30.3,30.13,NW,314,10.4,10.4,26,0.00,CLR,,0.00,WeatherDisplay:10.37,2013-05-03 21:21:00,
2013-05-03 16:26:00,66.4,31.4,30.13,WNW,290,11.5,11.5,27,0.00,CLR,,0.00,WeatherDisplay:10.37,2013-05-03 21:26:00,
2013-05-03 16:31:00,66.4,30.4,30.12,NW,308,12.7,12.7,26,0.00,CLR,,0.00,WeatherDisplay:10.37,2013-05-03 21:31:00,
2013-05-03 16:36:00,65.8,29.9,30.12,WNW,292,13.8,13.8,26,0.00,CLR,,0.00,WeatherDisplay:10.37,2013-05-03 21:36:00,
2013-05-03 16:41:00,65.7,30.8,30.12,NNW,333,11.5,11.5,27,0.00,CLR,,0.00,WeatherDisplay:10.37,2013-05-03 21:41:00,
2013-05-03 16:46:00,65.7,29.8,30.12,NNW,339,19.6,19.6,26,0.00,CLR,,0.00,WeatherDisplay:10.37,2013-05-03 21:46:00,
2013-05-03 16:51:00,66.0,30.1,30.11,NW,324,16.1,16.1,26,0.00,CLR,,0.00,WeatherDisplay:10.37,2013-05-03 21:51:00,
2013-05-03 16:56:00,66.1,30.2,30.11,NNW,329,6.9,6.9,26,0.00,CLR,,0.00,WeatherDisplay:10.37,2013-05-03 21:56:00,
2013-05-03 17:01:00,66.1,30.2,30.11,NW,306,9.2,9.2,26,0.00,CLR,,0.00,WeatherDisplay:10.37,2013-05-03 22:01:00,
2013-05-03 17:06:00,66.2,31.2,30.11,NW,323,11.0,11.0,27,0.00,CLR,,0.00,WeatherDisplay:10.37,2013-05-03 22:06:00,
2013-05-03 17:11:00,66.4,30.4,30.11,NNW,333,13.8,13.8,26,0.00,CLR,,0.00,WeatherDisplay:10.37,2013-05-03 22:11:00,
2013-05-03 17:16:00,66.5,31.5,30.11,NNW,337,6.9,6.9,27,0.00,CLR,,0.00,WeatherDisplay:10.37,2013-05-03 22:16:00,
2013-05-03 17:21:00,66.6,31.5,30.11,NNW,347,5.0,5.0,27,0.00,CLR,,0.00,WeatherDisplay:10.37,2013-05-03 22:21:00,
2013-05-03 17:26:00,66.7,30.7,30.10,NNW,348,13.8,13.8,26,0.00,CLR,,0.00,WeatherDisplay:10.37,2013-05-03 22:26:00,
2013-05-03 17:31:00,66.6,30.6,30.10,North,350,13.8,13.8,26,0.00,CLR,,0.00,WeatherDisplay:10.37,2013-05-03 22:31:00,
2013-05-03 17:36:00,66.5,30.5,30.10,NNW,334,4.6,4.6,26,0.00,CLR,,0.00,WeatherDisplay:10.37,2013-05-03 22:36:00,
2013-05-03 17:41:00,66.5,30.5,30.10,NNW,328,7.0,7.0,26,0.00,CLR,,0.00,WeatherDisplay:10.37,2013-05-03 22:41:00,
2013-05-03 17:46:00,66.5,30.5,30.10,NW,304,0.0,0.0,26,0.00,CLR,,0.00,WeatherDisplay:10.37,2013-05-03 22:46:00,
2013-05-03 17:51:00,66.9,29.9,30.10,NNW,329,6.9,6.9,25,0.00,CLR,,0.00,WeatherDisplay:10.37,2013-05-03 22:51:00,
2013-05-03 17:56:00,66.7,29.7,30.09,NW,321,13.8,13.8,25,0.00,CLR,,0.00,WeatherDisplay:10.37,2013-05-03 22:56:00,
2013-05-03 18:01:00,66.6,29.6,30.09,NNW,340,0.0,0.0,25,0.00,CLR,,0.00,WeatherDisplay:10.37,2013-05-03 23:01:00,
2013-05-03 18:06:00,66.6,30.6,30.09,NW,314,3.5,3.5,26,0.00,CLR,,0.00,WeatherDisplay:10.37,2013-05-03 23:06:00,
2013-05-03 18:11:00,66.7,29.7,30.09,NW,325,11.5,11.5,25,0.00,CLR,,0.00,WeatherDisplay:10.37,2013-05-03 23:11:00,
2013-05-03 18:16:00,66.8,29.8,30.09,NNW,329,3.5,3.5,25,0.00,CLR,,0.00,WeatherDisplay:10.37,2013-05-03 23:16:00,
2013-05-03 18:21:00,66.9,29.9,30.09,NNW,336,3.5,3.5,25,0.00,CLR,,0.00,WeatherDisplay:10.37,2013-05-03 23:21:00,
2013-05-03 18:26:00,67.0,30.0,30.09,NNW,338,5.8,5.8,25,0.00,CLR,,0.00,WeatherDisplay:10.37,2013-05-03 23:26:00,
2013-05-03 18:31:00,67.0,31.0,30.08,NNW,340,0.0,0.0,26,0.00,CLR,,0.00,WeatherDisplay:10.37,2013-05-03 23:31:00,
2013-05-03 18:36:00,67.1,30.1,30.08,North,351,3.5,3.5,25,0.00,CLR,,0.00,WeatherDisplay:10.37,2013-05-03 23:36:00,
2013-05-03 18:41:00,67.2,30.2,30.08,NNW,342,6.9,6.9,25,0.00,CLR,,0.00,WeatherDisplay:10.37,2013-05-03 23:41:00,
2013-05-03 18:46:00,67.1,30.1,30.08,NW,323,11.5,11.5,25,0.00,CLR,,0.00,WeatherDisplay:10.37,2013-05-03 23:46:00,
2013-05-03 18:51:00,67.0,30.0,30.08,NW,315,6.9,6.9,25,0.00,CLR,,0.00,WeatherDisplay:10.37,2013-05-03 23:51:00,
2013-05-03 18:56:00,66.7,29.7,30.08,NNW,331,4.6,4.6,25,0.00,CLR,,0.00,WeatherDisplay:10.37,2013-05-03 23:56:00,
2013-05-03 19:01:00,66.7,29.7,30.08,NNW,344,10.4,10.4,25,0.00,CLR,,0.00,WeatherDisplay:10.37,2013-05-04 00:01:00,
2013-05-03 19:06:00,66.6,29.6,30.08,NNW,337,9.2,9.2,25,0.00,CLR,,0.00,WeatherDisplay:10.37,2013-05-04 00:06:00,
2013-05-03 19:11:00,66.5,30.5,30.08,NNW,337,3.5,3.5,26,0.00,CLR,,0.00,WeatherDisplay:10.37,2013-05-04 00:11:00,
2013-05-03 19:16:00,66.4,29.5,30.08,NNW,337,3.5,3.5,25,0.00,CLR,,0.00,WeatherDisplay:10.37,2013-05-04 00:16:00,
2013-05-03 19:21:00,66.3,30.4,30.08,NNW,337,3.5,3.5,26,0.00,CLR,,0.00,WeatherDisplay:10.37,2013-05-04 00:21:00,
2013-05-03 19:26:00,66.3,30.4,30.08,NNW,340,6.9,6.9,26,0.00,CLR,,0.00,WeatherDisplay:10.37,2013-05-04 00:26:00,
2013-05-03 19:31:00,66.2,30.3,30.08,NNW,340,0.0,0.0,26,0.00,CLR,,0.00,WeatherDisplay:10.37,2013-05-04 00:31:00,
2013-05-03 19:36:00,66.2,30.3,30.08,NNW,340,3.5,0.0,26,0.00,CLR,,0.00,WeatherDisplay:10.37,2013-05-04 00:36:00,
2013-05-03 19:41:00,66.1,31.1,30.08,NNW,340,0.0,0.0,27,0.00,CLR,,0.00,WeatherDisplay:10.37,2013-05-04 00:41:00,
2013-05-03 19:46:00,66.0,31.0,30.08,NNW,340,0.0,0.0,27,0.00,CLR,,0.00,WeatherDisplay:10.37,2013-05-04 00:46:00,
2013-05-03 19:51:00,65.9,30.9,30.08,NNW,340,0.0,0.0,27,0.00,CLR,,0.00,WeatherDisplay:10.37,2013-05-04 00:51:00,
2013-05-03 19:56:00,65.7,32.5,30.08,NNW,340,0.0,0.0,29,0.00,CLR,,0.00,WeatherDisplay:10.37,2013-05-04 00:56:00,
2013-05-03 20:01:00,65.5,32.4,30.08,NNW,340,0.0,0.0,29,0.00,CLR,,0.00,WeatherDisplay:10.37,2013-05-04 01:01:00,
2013-05-03 20:06:00,65.1,33.7,30.08,NNW,340,0.0,0.0,31,0.00,CLR,,0.00,WeatherDisplay:10.37,2013-05-04 01:06:00,
2013-05-03 20:11:00,64.7,35.7,30.08,NNW,340,0.0,0.0,34,0.00,CLR,,0.00,WeatherDisplay:10.37,2013-05-04 01:11:00,
2013-05-03 20:16:00,64.2,36.7,30.09,NNW,340,0.0,0.0,36,0.00,CLR,,0.00,WeatherDisplay:10.37,2013-05-04 01:16:00,
2013-05-03 20:21:00,63.7,36.9,30.08,NNW,340,0.0,0.0,37,0.00,CLR,,0.00,WeatherDisplay:10.37,2013-05-04 01:21:00,
2013-05-03 20:26:00,63.0,37.6,30.09,NNW,340,0.0,0.0,39,0.00,CLR,,0.00,WeatherDisplay:10.37,2013-05-04 01:26:00,
2013-05-03 20:31:00,62.4,37.7,30.09,NNW,340,0.0,0.0,40,0.00,CLR,,0.00,WeatherDisplay:10.37,2013-05-04 01:31:00,
2013-05-03 20:36:00,61.6,37.0,30.09,NNW,340,0.0,0.0,40,0.00,CLR,,0.00,WeatherDisplay:10.37,2013-05-04 01:36:00,
2013-05-03 20:41:00,60.8,37.5,30.09,NNW,340,0.0,0.0,42,0.00,CLR,,0.00,WeatherDisplay:10.37,2013-05-04 01:41:00,
2013-05-03 20:46:00,59.8,37.2,30.09,NNW,340,0.0,0.0,43,0.00,CLR,,0.00,WeatherDisplay:10.37,2013-05-04 01:46:00,
2013-05-03 20:51:00,59.1,37.8,30.09,NNW,340,0.0,0.0,45,0.00,CLR,,0.00,WeatherDisplay:10.37,2013-05-04 01:51:00,
2013-05-03 20:56:00,58.3,37.0,30.09,NNW,340,0.0,0.0,45,0.00,CLR,,0.00,WeatherDisplay:10.37,2013-05-04 01:56:00,
2013-05-03 21:01:00,57.6,37.0,30.10,NNW,340,0.0,0.0,46,0.00,CLR,,0.00,WeatherDisplay:10.37,2013-05-04 02:01:00,
2013-05-03 21:06:00,56.7,36.1,30.10,NNW,340,0.0,0.0,46,0.00,CLR,,0.00,WeatherDisplay:10.37,2013-05-04 02:06:00,
2013-05-03 21:11:00,56.0,37.1,30.10,NNW,340,0.0,0.0,49,0.00,CLR,,0.00,WeatherDisplay:10.37,2013-05-04 02:11:00,
2013-05-03 21:16:00,55.5,37.1,30.10,NNW,340,0.0,0.0,50,0.00,CLR,,0.00,WeatherDisplay:10.37,2013-05-04 02:16:00,
2013-05-03 21:21:00,54.8,35.5,30.10,NNW,340,0.0,0.0,48,0.00,CLR,,0.00,WeatherDisplay:10.37,2013-05-04 02:21:00,
2013-05-03 21:26:00,54.3,37.0,30.10,NNW,340,0.0,0.0,52,0.00,CLR,,0.00,WeatherDisplay:10.37,2013-05-04 02:26:00,
2013-05-03 21:31:00,53.7,35.0,30.11,NNW,340,0.0,0.0,49,0.00,CLR,,0.00,WeatherDisplay:10.37,2013-05-04 02:31:00,
2013-05-03 21:36:00,53.2,36.5,30.10,NNW,340,0.0,0.0,53,0.00,CLR,,0.00,WeatherDisplay:10.37,2013-05-04 02:36:00,
2013-05-03 21:41:00,52.8,37.5,30.10,NNW,340,0.0,0.0,56,0.00,CLR,,0.00,WeatherDisplay:10.37,2013-05-04 02:41:00,
2013-05-03 21:46:00,52.4,37.6,30.11,NNW,340,0.0,0.0,57,0.00,CLR,,0.00,WeatherDisplay:10.37,2013-05-04 02:46:00,
2013-05-03 21:51:00,52.1,37.8,30.11,NNW,340,0.0,0.0,58,0.00,CLR,,0.00,WeatherDisplay:10.37,2013-05-04 02:51:00,
2013-05-03 21:56:00,51.8,37.9,30.11,NNW,340,0.0,0.0,59,0.00,CLR,,0.00,WeatherDisplay:10.37,2013-05-04 02:56:00,
2013-05-03 22:01:00,51.6,37.7,30.10,NNW,340,0.0,0.0,59,0.00,CLR,,0.00,WeatherDisplay:10.37,2013-05-04 03:01:00,
2013-05-03 22:06:00,51.2,37.8,30.10,NNW,340,0.0,0.0,60,0.00,CLR,,0.00,WeatherDisplay:10.37,2013-05-04 03:06:00,
2013-05-03 22:11:00,51.0,37.2,30.10,NNW,340,0.0,0.0,59,0.00,CLR,,0.00,WeatherDisplay:10.37,2013-05-04 03:11:00,
2013-05-03 22:16:00,50.7,36.0,30.10,NNW,340,0.0,0.0,57,0.00,CLR,,0.00,WeatherDisplay:10.37,2013-05-04 03:16:00,
2013-05-03 22:21:00,50.4,36.2,30.09,NNW,340,0.0,0.0,58,0.00,CLR,,0.00,WeatherDisplay:10.37,2013-05-04 03:21:00,
2013-05-03 22:26:00,50.1,36.3,30.09,NNW,340,0.0,0.0,59,0.00,CLR,,0.00,WeatherDisplay:10.37,2013-05-04 03:26:00,
2013-05-03 22:31:00,49.9,36.6,30.09,NNW,340,0.0,0.0,60,0.00,CLR,,0.00,WeatherDisplay:10.37,2013-05-04 03:31:00,
2013-05-03 22:36:00,49.7,36.4,30.09,NNW,340,0.0,0.0,60,0.00,CLR,,0.00,WeatherDisplay:10.37,2013-05-04 03:36:00,
2013-05-03 22:41:00,49.6,36.7,30.09,NNW,340,0.0,0.0,61,0.00,CLR,,0.00,WeatherDisplay:10.37,2013-05-04 03:41:00,
2013-05-03 22:46:00,49.4,35.7,30.09,NNW,340,0.0,0.0,59,0.00,CLR,,0.00,WeatherDisplay:10.37,2013-05-04 03:46:00,
2013-05-03 22:51:00,49.1,34.9,30.09,NNW,340,0.0,0.0,58,0.00,CLR,,0.00,WeatherDisplay:10.37,2013-05-04 03:51:00,
2013-05-03 22:56:00,48.9,34.8,30.09,NNW,340,0.0,0.0,58,0.00,CLR,,0.00,WeatherDisplay:10.37,2013-05-04 03:56:00,
2013-05-03 23:01:00,48.9,36.0,30.09,NNW,340,0.0,0.0,61,0.00,CLR,,0.00,WeatherDisplay:10.37,2013-05-04 04:01:00,
2013-05-03 23:06:00,48.8,35.9,30.09,NNW,340,0.0,0.0,61,0.00,CLR,,0.00,WeatherDisplay:10.37,2013-05-04 04:06:00,
2013-05-03 23:11:00,48.7,36.7,30.09,NNW,340,0.0,0.0,63,0.00,CLR,,0.00,WeatherDisplay:10.37,2013-05-04 04:11:00,
2013-05-03 23:16:00,48.5,36.5,30.10,NNW,340,0.0,0.0,63,0.00,CLR,,0.00,WeatherDisplay:10.37,2013-05-04 04:16:00,
2013-05-03 23:21:00,48.2,35.8,30.09,NNW,340,0.0,0.0,62,0.00,CLR,,0.00,WeatherDisplay:10.37,2013-05-04 04:21:00,
2013-05-03 23:26:00,47.8,35.8,30.09,NNW,340,0.0,0.0,63,0.00,CLR,,0.00,WeatherDisplay:10.37,2013-05-04 04:26:00,
2013-05-03 23:31:00,47.5,35.5,30.09,NNW,340,0.0,0.0,63,0.00,CLR,,0.00,WeatherDisplay:10.37,2013-05-04 04:31:00,
2013-05-03 23:36:00,47.2,35.6,30.09,NNW,340,0.0,0.0,64,0.00,CLR,,0.00,WeatherDisplay:10.37,2013-05-04 04:36:00,
2013-05-03 23:41:00,47.0,35.8,30.09,NNW,340,0.0,0.0,65,0.00,CLR,,0.00,WeatherDisplay:10.37,2013-05-04 04:41:00,
2013-05-03 23:46:00,46.9,35.4,30.09,NNW,340,0.0,0.0,64,0.00,CLR,,0.00,WeatherDisplay:10.37,2013-05-04 04:46:00,
2013-05-03 23:51:00,47.0,35.8,30.09,NNW,340,0.0,0.0,65,0.00,CLR,,0.00,WeatherDisplay:10.37,2013-05-04 04:51:00,
2013-05-03 23:56:00,47.1,35.9,30.09,NNW,340,0.0,0.0,65,0.00,CLR,,0.00,WeatherDisplay:10.37,2013-05-04 04:56:00,